Weather History for PAIN - May, 2013

Change the Weather History Date:

Tuesday, May 21, 2013

  Actual Average Record
Temperature  
Mean Temperature 36 °F -  
Max Temperature 48 °F 55 °F 75 °F (2002)
Min Temperature 24 °F 29 °F 11 °F (1964)
Degree Days  
Heating Degree Days 29    
Moisture  
Dew Point 17 °F    
Average Humidity 44    
Maximum Humidity 74    
Minimum Humidity 29    
Precipitation  
Precipitation 0.00 in - - ()
Sea Level Pressure  
Sea Level Pressure 30.34 in    
Wind  
Wind Speed 3 mph (South)    
Max Wind Speed 12 mph    
Max Gust Speed 20 mph    
Visibility 10 miles    
Events      
Averages and records for this station are not official NWS values.
T = Trace of Precipitation, MM = Missing Value Source: NWS Daily Summary

Daily Weather History Graph

Daily Weather History Graph

Search for Another Location

Airport or City:

Trip Planner

Search our weather history database for the weather conditions in past years. The results will help you decide how hot, cold, wet, or windy it might be!

Date:

Astronomy

May. 21, 2013 Rise Set
Actual Time 4:25 AM AKDT 11:21 PM AKDT
Civil Twilight 1:59 AM AKDT 1:19 AM AKDT
Nautical Twilight Sun does not rise Sun does not rise
Astronomical Twilight Sun does not rise Sun does not rise
Moon 6:26 PM AKDT (5/21) 3:32 AM AKDT (5/21)
Length of Visible Light 23h 20m
Length of Day
18h 55m
Waxing Gibbous, 85% of the Moon is Illuminated
May 21
Waxing Gibbous
May 24
Full
May 31
Last Quarter
Jun 8
New
Jun 16
First Quarter

Hourly Weather History & Observations

Time (AKDT) Temp. Windchill Dew Point Humidity Pressure Visibility Wind Dir Wind Speed Gust Speed Precip Events Conditions
12:16 AM 33.8 °F - 14.0 °F 44% 30.46 in 10.0 mi Calm Calm - N/A   Clear
12:36 AM 32.0 °F 28.7 °F 15.8 °F 51% 30.46 in 10.0 mi WSW 3.5 mph - N/A   Clear
12:56 AM 32.0 °F - 14.0 °F 48% 30.46 in 10.0 mi Calm Calm - N/A   Clear
1:16 AM 32.0 °F - 14.0 °F 48% 30.46 in 10.0 mi Calm Calm - N/A   Clear
1:36 AM 30.2 °F - 17.6 °F 60% 30.46 in 10.0 mi Calm Calm - N/A   Clear
1:56 AM 30.2 °F 26.7 °F 17.6 °F 60% 30.46 in 10.0 mi WSW 3.5 mph - N/A   Clear
2:16 AM 30.2 °F - 15.8 °F 55% 30.46 in 10.0 mi Calm Calm - N/A   Clear
2:36 AM 28.4 °F - 17.6 °F 64% 30.46 in 10.0 mi Calm Calm - N/A   Clear
2:56 AM 28.4 °F 24.6 °F 17.6 °F 64% 30.47 in 10.0 mi SSW 3.5 mph - N/A   Clear
3:16 AM 28.4 °F 23.3 °F 17.6 °F 64% 30.46 in 10.0 mi SSW 4.6 mph - N/A   Clear
3:36 AM 28.4 °F - 15.8 °F 59% 30.46 in 10.0 mi Calm Calm - N/A   Clear
3:56 AM 26.6 °F 22.6 °F 17.6 °F 69% 30.47 in 10.0 mi SW 3.5 mph - N/A   Clear
4:16 AM 26.6 °F 22.6 °F 17.6 °F 69% 30.46 in 10.0 mi West 3.5 mph - N/A   Clear
4:36 AM 26.6 °F - 17.6 °F 69% 30.46 in 10.0 mi Calm Calm - N/A   Clear
4:56 AM 26.6 °F - 17.6 °F 69% 30.46 in 10.0 mi Calm Calm - N/A   Clear
5:16 AM 26.6 °F 22.6 °F 17.6 °F 69% 30.46 in 10.0 mi SSW 3.5 mph - N/A   Clear
5:36 AM 26.6 °F - 17.6 °F 69% 30.45 in 10.0 mi Calm Calm - N/A   Clear
5:56 AM 26.6 °F - 17.6 °F 69% 30.45 in 10.0 mi Calm Calm - N/A   Clear
6:16 AM 26.6 °F - 17.6 °F 69% 30.45 in 10.0 mi Calm Calm - N/A   Clear
6:36 AM 24.8 °F - 17.6 °F 74% 30.45 in 10.0 mi Calm Calm - N/A   Clear
6:56 AM 28.4 °F 24.6 °F 17.6 °F 64% 30.44 in 10.0 mi SSW 3.5 mph - N/A   Clear
7:16 AM 28.4 °F - 17.6 °F 64% 30.43 in 10.0 mi Calm Calm - N/A   Clear
7:36 AM 30.2 °F - 17.6 °F 60% 30.43 in 10.0 mi Calm Calm - N/A   Clear
7:56 AM 32.0 °F - 15.8 °F 51% 30.42 in 10.0 mi Calm Calm - N/A   Clear
8:16 AM 33.8 °F - 14.0 °F 44% 30.42 in 10.0 mi Calm Calm - N/A   Clear
8:36 AM 35.6 °F - 12.2 °F 38% 30.41 in 10.0 mi Calm Calm - N/A   Clear
8:56 AM 37.4 °F - 12.2 °F 36% 30.40 in 10.0 mi Calm Calm - N/A   Clear
9:16 AM 37.4 °F - 12.2 °F 36% 30.39 in 10.0 mi Calm Calm - N/A   Clear
9:36 AM 39.2 °F - 14.0 °F 36% 30.38 in 10.0 mi Calm Calm - N/A   Clear
9:56 AM 41.0 °F 35.2 °F 14.0 °F 33% 30.37 in 10.0 mi ESE 9.2 mph - N/A   Clear
10:16 AM 42.8 °F 39.3 °F 15.8 °F 34% 30.36 in 10.0 mi SE 5.8 mph - N/A   Clear
10:36 AM 42.8 °F 39.3 °F 15.8 °F 34% 30.36 in 10.0 mi SE 5.8 mph - N/A   Clear
10:56 AM 42.8 °F 38.6 °F 15.8 °F 34% 30.35 in 10.0 mi South 6.9 mph - N/A   Clear
11:16 AM 44.6 °F 40.2 °F 15.8 °F 31% 30.35 in 10.0 mi South 8.1 mph - N/A   Clear
11:36 AM 44.6 °F 39.7 °F 15.8 °F 31% 30.34 in 10.0 mi South 9.2 mph - N/A   Clear
11:56 AM 44.6 °F 40.2 °F 15.8 °F 31% 30.34 in 10.0 mi SE 8.1 mph - N/A   Clear
12:16 PM 44.6 °F 41.4 °F 17.6 °F 34% 30.34 in 10.0 mi South 5.8 mph - N/A   Clear
12:36 PM 44.6 °F 39.2 °F 15.8 °F 31% 30.34 in 10.0 mi SSE 10.4 mph - N/A   Clear
12:56 PM 44.6 °F 39.2 °F 17.6 °F 34% 30.33 in 10.0 mi SSE 10.4 mph 19.6 mph N/A   Clear
1:16 PM 46.4 °F 41.9 °F 15.8 °F 29% 30.33 in 10.0 mi SSE 9.2 mph 17.3 mph N/A   Clear
1:36 PM 46.4 °F 41.1 °F 15.8 °F 29% 30.32 in 10.0 mi South 11.5 mph 19.6 mph N/A   Clear
1:56 PM 46.4 °F 41.9 °F 15.8 °F 29% 30.31 in 10.0 mi SSE 9.2 mph 16.1 mph N/A   Clear
2:16 PM 46.4 °F 43.5 °F 17.6 °F 32% 30.31 in 10.0 mi South 5.8 mph - N/A   Clear
2:36 PM 48.2 °F - 17.6 °F 30% 30.30 in 10.0 mi SSE 6.9 mph - N/A   Clear
2:56 PM 48.2 °F - 17.6 °F 30% 30.30 in 10.0 mi SSE 8.1 mph - N/A   Clear
3:16 PM 46.4 °F 43.5 °F 17.6 °F 32% 30.29 in 10.0 mi South 5.8 mph - N/A   Clear
3:36 PM 48.2 °F - 17.6 °F 30% 30.28 in 10.0 mi South 8.1 mph - N/A   Clear
3:56 PM 48.2 °F - 17.6 °F 30% 30.27 in 10.0 mi South 6.9 mph 16.1 mph N/A   Clear
4:16 PM 48.2 °F - 17.6 °F 30% 30.27 in 10.0 mi South 6.9 mph - N/A   Clear
4:36 PM 48.2 °F - 19.4 °F 32% 30.26 in 10.0 mi SSE 10.4 mph - N/A   Clear
4:56 PM 48.2 °F - 17.6 °F 30% 30.26 in 10.0 mi South 6.9 mph - N/A   Clear
5:16 PM 48.2 °F - 17.6 °F 30% 30.26 in 10.0 mi South 10.4 mph - N/A   Clear
5:36 PM 48.2 °F - 17.6 °F 30% 30.25 in 10.0 mi South 6.9 mph - N/A   Clear
5:56 PM 48.2 °F - 17.6 °F 30% 30.24 in 10.0 mi SSE 8.1 mph 16.1 mph N/A   Clear
6:16 PM 48.2 °F - 17.6 °F 30% 30.24 in 10.0 mi South 6.9 mph - N/A   Clear
6:36 PM 48.2 °F - 19.4 °F 32% 30.23 in 10.0 mi SSE 8.1 mph - N/A   Clear
6:56 PM 48.2 °F - 19.4 °F 32% 30.22 in 10.0 mi South 6.9 mph - N/A   Clear
7:16 PM 46.4 °F 42.4 °F 17.6 °F 32% 30.22 in 10.0 mi South 8.1 mph - N/A   Clear
7:36 PM 46.4 °F 41.9 °F 19.4 °F 34% 30.21 in 10.0 mi SSE 9.2 mph - N/A   Clear
7:56 PM 46.4 °F 42.9 °F 19.4 °F 34% 30.21 in 10.0 mi SSE 6.9 mph - N/A   Clear
8:16 PM 46.4 °F 41.9 °F 19.4 °F 34% 30.20 in 10.0 mi South 9.2 mph 16.1 mph N/A   Clear
8:36 PM 46.4 °F 44.3 °F 19.4 °F 34% 30.20 in 10.0 mi SSE 4.6 mph - N/A   Clear
8:56 PM 44.6 °F 40.7 °F 19.4 °F 37% 30.20 in 10.0 mi South 6.9 mph 16.1 mph N/A   Clear
9:16 PM 44.6 °F 39.7 °F 19.4 °F 37% 30.20 in 10.0 mi South 9.2 mph 19.6 mph N/A   Clear
9:36 PM 42.8 °F 37.5 °F 19.4 °F 39% 30.20 in 10.0 mi South 9.2 mph - N/A   Clear
9:56 PM 42.8 °F 38.6 °F 19.4 °F 39% 30.20 in 10.0 mi South 6.9 mph - N/A   Clear
10:16 PM 42.8 °F 41.1 °F 19.4 °F 39% 30.19 in 10.0 mi South 3.5 mph - N/A   Clear
10:36 PM 39.2 °F - 21.2 °F 49% 30.19 in 10.0 mi Calm Calm - N/A   Clear
10:56 PM 41.0 °F 39.0 °F 19.4 °F 42% 30.18 in 10.0 mi SE 3.5 mph - N/A   Clear
11:16 PM 39.2 °F - 19.4 °F 45% 30.18 in 10.0 mi Calm Calm - N/A   Clear
11:36 PM 39.2 °F - 19.4 °F 45% 30.18 in 10.0 mi Calm Calm - N/A   Clear
11:56 PM 37.4 °F - 21.2 °F 52% 30.17 in 10.0 mi Calm Calm - N/A   Clear